Location: Cuiabá
(15.6014°S, 56.0979°W)
Time: 16:17:59
(UTC-04:00)

Envisat - Pass Details

Date: 03 December 2022
Orbit: 763 x 765 km, 98.2° (Epoch: 05 February)

Event Time Altitude Azimuth Distance (km) Brightness Sun altitude
Exits shadow 02:20:12 - 52° (NE) 3,057 6.2 -34.5°
Reaches altitude 10° 02:22:53 10° 71° (ENE) 2,298 5.7 -34.1°
Maximum altitude 02:25:51 16° 107° (ESE) 1,930 5.7 -33.5°
Drops below altitude 10° 02:28:50 10° 143° (SE) 2,309 6.3 -33.0°
Sets 02:32:01 0° 164° (SSE) 3,242 7.0 -32.4°
